Alamogordo, NM

11:21 PM MST on November 19, 2019 (GMT -0700)
Alamogordo-White Sands Regional

Weather History for KALM - September, 2019

Change the Weather History Date:

Wednesday, September 11, 2019

  Actual Average Record
Temperature  
Mean Temperature 80 °F -  
Max Temperature 91 °F 88 °F 96 °F (1952)
Min Temperature 68 °F 60 °F 46 °F (1956)
Cooling Degree Days 14    
Growing Degree Days 30 (Base 50)    
Moisture  
Dew Point 56 °F    
Average Humidity 49    
Maximum Humidity 73    
Minimum Humidity 24    
Precipitation  
Precipitation 0.00 in - - ()
Sea Level Pressure  
Sea Level Pressure 30.08 in    
Wind  
Wind Speed 8 mph ()    
Max Wind Speed 14 mph    
Max Gust Speed 22 mph    
Visibility 10.0 miles    
Events      
Averages and records for this station are not official NWS values.
T = Trace of Precipitation, MM = Missing Value Source: Averaged Metar Reports

Daily Weather History Graph

Daily Weather History Graph

Search for Another Location

Airport or City:

Astronomy

Sep. 11, 2019 Rise Set
Actual Time 6:44 AM MDT 7:15 PM MDT
Civil Twilight 6:20 AM MDT 7:40 PM MDT
Nautical Twilight 5:50 AM MDT 8:09 PM MDT
Astronomical Twilight 5:21 AM MDT 8:39 PM MDT
Moon 6:19 PM MDT (9/11) 4:21 AM MDT (9/11)
Length of Visible Light 13h 20m
Length of Day
12h 30m
Waxing Gibbous, 95% of the Moon is Illuminated
Sep 11
Waxing Gibbous
Sep 13
Full
Sep 21
Last Quarter
Sep 28
New
Oct 5
First Quarter

Hourly Weather History & Observations

Time (MDT) Temp. Heat Index Dew Point Humidity Pressure Visibility Wind Dir Wind Speed Gust Speed Precip Events Conditions
12:15 AM 75.2 °F - 57.2 °F 53% 30.07 in 10.0 mi SSE 10.4 mph - N/A   Scattered Clouds
12:35 AM 73.4 °F - 57.2 °F 57% 30.07 in 10.0 mi SSW 8.1 mph - N/A   Partly Cloudy
12:55 AM 73.4 °F - 57.2 °F 57% 30.07 in 10.0 mi South 6.9 mph - N/A   Scattered Clouds
1:15 AM 73.4 °F - 57.2 °F 57% 30.08 in 10.0 mi SSW 9.2 mph - N/A   Scattered Clouds
1:35 AM 73.4 °F - 57.2 °F 57% 30.08 in 10.0 mi SSW 8.1 mph - N/A   Mostly Cloudy
1:55 AM 73.4 °F - 57.2 °F 57% 30.08 in 10.0 mi SSW 9.2 mph - N/A   Scattered Clouds
2:15 AM 71.6 °F - 57.2 °F 60% 30.08 in 10.0 mi South 8.1 mph - N/A   Scattered Clouds
2:35 AM 71.6 °F - 57.2 °F 60% 30.07 in 10.0 mi SSW 5.8 mph - N/A   Mostly Cloudy
2:55 AM 71.6 °F - 59.0 °F 64% 30.07 in 10.0 mi SSW 5.8 mph - N/A   Mostly Cloudy
3:15 AM 69.8 °F - 59.0 °F 68% 30.08 in 10.0 mi SSW 6.9 mph - N/A   Mostly Cloudy
3:35 AM 68.0 °F - 59.0 °F 73% 30.08 in 10.0 mi ESE 6.9 mph - N/A   Mostly Cloudy
3:55 AM 68.0 °F - 59.0 °F 73% 30.08 in 10.0 mi South 6.9 mph - N/A   Mostly Cloudy
4:15 AM 68.0 °F - 57.2 °F 68% 30.08 in 10.0 mi South 8.1 mph - N/A   Overcast
4:35 AM 68.0 °F - 59.0 °F 73% 30.08 in 10.0 mi SSE 5.8 mph - N/A   Partly Cloudy
4:55 AM 68.0 °F - 57.2 °F 68% 30.09 in 10.0 mi SSW 6.9 mph - N/A   Clear
5:15 AM 68.0 °F - 57.2 °F 68% 30.09 in 10.0 mi South 10.4 mph - N/A   Clear
5:35 AM 68.0 °F - 57.2 °F 68% 30.09 in 10.0 mi SSE 6.9 mph - N/A   Mostly Cloudy
5:55 AM 68.0 °F - 59.0 °F 73% 30.09 in 10.0 mi SSW 4.6 mph - N/A   Mostly Cloudy
6:15 AM 68.0 °F - 57.2 °F 68% 30.10 in 10.0 mi South 4.6 mph - N/A   Scattered Clouds
6:35 AM 68.0 °F - 59.0 °F 73% 30.10 in 10.0 mi South 6.9 mph - N/A   Scattered Clouds
6:55 AM 68.0 °F - 59.0 °F 73% 30.11 in 10.0 mi South 6.9 mph - N/A   Mostly Cloudy
7:15 AM 68.0 °F - 59.0 °F 73% 30.11 in 10.0 mi South 5.8 mph - N/A   Partly Cloudy
7:55 AM 73.4 °F - 59.0 °F 61% 30.13 in 10.0 mi South 5.8 mph - N/A   Clear
8:15 AM 75.2 °F - 59.0 °F 57% 30.13 in 10.0 mi South 8.1 mph - N/A   Clear
8:35 AM 75.2 °F - 59.0 °F 57% 30.14 in 10.0 mi South 6.9 mph - N/A   Clear
8:55 AM 77.0 °F - 59.0 °F 54% 30.14 in 10.0 mi South 11.5 mph - N/A   Clear
9:15 AM 77.0 °F - 59.0 °F 54% 30.14 in 10.0 mi South 11.5 mph - N/A   Clear
9:35 AM 78.8 °F - 59.0 °F 51% 30.15 in 10.0 mi South 10.4 mph - N/A   Clear
9:55 AM 80.6 °F 81.1 °F 59.0 °F 48% 30.15 in 10.0 mi South 11.5 mph 16.1 mph N/A   Clear
10:15 AM 80.6 °F 81.1 °F 59.0 °F 48% 30.15 in 10.0 mi South 11.5 mph 17.3 mph N/A   Clear
10:35 AM 80.6 °F 81.1 °F 59.0 °F 48% 30.15 in 10.0 mi SSE 10.4 mph - N/A   Clear
10:55 AM 82.4 °F 82.5 °F 59.0 °F 45% 30.15 in 10.0 mi SSE 8.1 mph 16.1 mph N/A   Clear
11:15 AM 82.4 °F 82.0 °F 57.2 °F 42% 30.14 in 10.0 mi SSW 8.1 mph - N/A   Clear
11:35 AM 82.4 °F 82.0 °F 57.2 °F 42% 30.13 in 10.0 mi South 9.2 mph - N/A   Clear
11:55 AM 84.2 °F 83.5 °F 57.2 °F 40% 30.13 in 10.0 mi SSW 8.1 mph - N/A   Clear
12:35 PM 84.2 °F 83.5 °F 57.2 °F 40% 30.13 in 10.0 mi South 11.5 mph - N/A   Clear
12:55 PM 86.0 °F 84.9 °F 57.2 °F 37% 30.13 in 10.0 mi SSE 4.6 mph 17.3 mph N/A   Partly Cloudy
1:15 PM 86.0 °F 84.9 °F 57.2 °F 37% 30.12 in 10.0 mi South 10.4 mph - N/A   Partly Cloudy
1:35 PM 86.0 °F 84.9 °F 57.2 °F 37% 30.10 in 10.0 mi South 4.6 mph 18.4 mph N/A   Scattered Clouds
1:55 PM 84.2 °F 83.0 °F 55.4 °F 37% 30.09 in 10.0 mi Calm Calm - N/A   Mostly Cloudy
2:15 PM 86.0 °F 84.5 °F 55.4 °F 35% 30.08 in 10.0 mi SW 9.2 mph 18.4 mph N/A   Mostly Cloudy
2:35 PM 87.8 °F 86.1 °F 55.4 °F 33% 30.07 in 10.0 mi SW 11.5 mph 17.3 mph N/A   Scattered Clouds
2:55 PM 87.8 °F 86.1 °F 55.4 °F 33% 30.05 in 10.0 mi SSE 10.4 mph - N/A   Partly Cloudy
3:15 PM 86.0 °F 84.5 °F 55.4 °F 35% 30.04 in 10.0 mi SE 8.1 mph - N/A   Scattered Clouds
3:35 PM 89.6 °F 87.3 °F 53.6 °F 29% 30.03 in 10.0 mi South 10.4 mph 18.4 mph N/A   Mostly Cloudy
3:55 PM 89.6 °F - 51.8 °F 27% 30.02 in 10.0 mi WSW 10.4 mph 21.9 mph N/A   Partly Cloudy
4:15 PM 89.6 °F - 51.8 °F 27% 30.02 in 10.0 mi SW 11.5 mph - N/A   Partly Cloudy
4:35 PM 89.6 °F - 50.0 °F 26% 30.01 in 10.0 mi SSW 9.2 mph - N/A   Scattered Clouds
4:55 PM 91.4 °F - 50.0 °F 24% 30.01 in 10.0 mi SW 11.5 mph - N/A   Partly Cloudy
5:15 PM 89.6 °F - 50.0 °F 26% 30.00 in 10.0 mi WSW 13.8 mph 18.4 mph N/A   Partly Cloudy
5:35 PM 89.6 °F - 50.0 °F 26% 30.00 in 10.0 mi SW 11.5 mph 17.3 mph N/A   Partly Cloudy
5:55 PM 89.6 °F - 50.0 °F 26% 30.01 in 10.0 mi WSW 9.2 mph - N/A   Clear
6:15 PM 89.6 °F - 50.0 °F 26% 30.01 in 10.0 mi SW 9.2 mph - N/A   Clear
6:35 PM 87.8 °F - 50.0 °F 27% 30.01 in 10.0 mi WSW 9.2 mph - N/A   Clear
6:55 PM 86.0 °F - 50.0 °F 29% 30.01 in 10.0 mi SSW 6.9 mph - N/A   Clear
7:15 PM 84.2 °F - 51.8 °F 33% 30.01 in 10.0 mi SSW 8.1 mph - N/A   Clear
7:35 PM 80.6 °F 80.3 °F 53.6 °F 39% 30.02 in 10.0 mi South 6.9 mph - N/A   Clear
7:55 PM 78.8 °F - 53.6 °F 42% 30.02 in 10.0 mi South 4.6 mph - N/A   Clear
8:15 PM 75.2 °F - 53.6 °F 47% 30.03 in 10.0 mi SSE 5.8 mph - N/A   Clear
8:35 PM 75.2 °F - 53.6 °F 47% 30.04 in 10.0 mi SE 6.9 mph - N/A   Clear
8:55 PM 75.2 °F - 55.4 °F 50% 30.05 in 10.0 mi SE 9.2 mph - N/A   Clear
9:15 PM 75.2 °F - 55.4 °F 50% 30.06 in 10.0 mi SSE 8.1 mph - N/A   Clear
9:35 PM 75.2 °F - 55.4 °F 50% 30.06 in 10.0 mi SSE 9.2 mph - N/A   Clear
9:55 PM 75.2 °F - 55.4 °F 50% 30.07 in 10.0 mi SE 8.1 mph - N/A   Clear
10:15 PM 75.2 °F - 53.6 °F 47% 30.07 in 10.0 mi SSE 9.2 mph - N/A   Clear
10:35 PM 75.2 °F - 53.6 °F 47% 30.08 in 10.0 mi SSE 6.9 mph - N/A   Clear
10:55 PM 75.2 °F - 53.6 °F 47% 30.08 in 10.0 mi SSE 6.9 mph - N/A   Clear
11:15 PM 75.2 °F - 53.6 °F 47% 30.08 in 10.0 mi SSE 8.1 mph - N/A   Clear
11:35 PM 73.4 °F - 53.6 °F 50% 30.08 in 10.0 mi South 10.4 mph - N/A   Clear
11:55 PM 75.2 °F - 53.6 °F 47% 30.08 in 10.0 mi South 9.2 mph - N/A   Clear